{"data":{"norad_id":66385,"epoch":"2026-09-20T11:55:30.912384Z","epoch_age_seconds":93636,"freshness":"FRESH","line1":"1 66385U 25257F   26263.49688556  .00018580  00000+0  55937-3 0  9992","line2":"2 66385  53.1555  27.6055 0001277  75.6357 284.4787 15.34417028 49625","mean_motion":15.34417028,"eccentricity":0.0001277,"inclination_deg":53.1555,"raan_deg":27.6055,"arg_perigee_deg":75.6357,"mean_anomaly_deg":284.4787,"bstar":0.00055937,"rev_number":4962,"period_min":93.846716617642,"perigee_km":461.77906103492,"apogee_km":463.52619870639,"semimajor_km":6840.7896298707,"source":"CELESTRAK","updated_at":"2026-09-21T09:00:35.885950Z"}}